[keps] orb08073.2l.amsat
Ray Hoad
r.hoad at att.net
Thu Mar 13 18:44:40 PST 2008
SB KEPS @ AMSAT $ORB08073.N
2Line Orbital Elements 08073.AMSAT
HR AMSAT ORBITAL ELEMENTS FOR AMATEUR SATELLITES IN NASA FORMAT
FROM WA5QGD FORT WORTH,TX March 13, 2008
Send Subscribe/unsubscribe to KEPS at
http://www.amsat.org/mailman/listinfo/keps
BID: ORB08073.N
DECODE 2-LINE ELSETS WITH THE FOLLOWING KEY:
1 AAAAAU 00 0 0 BBBBB.BBBBBBBB .CCCCCCCC 00000-0 00000-0 0 DDDZ
2 AAAAA EEE.EEEE FFF.FFFF GGGGGGG HHH.HHHH III.IIII JJ.JJJJJJJJKKKKKZ
KEY: A-CATALOGNUM B-EPOCHTIME C-DECAY D-ELSETNUM E-INCLINATION F-RAAN
G-ECCENTRICITY H-ARGPERIGEE I-MNANOM J-MNMOTION K-ORBITNUM Z-CHECKSUM
TO ALL RADIO AMATEURS BT
AO-07
1 07530U 74089B 08073.68549084 -.00000027 00000-0 10000-3 0 1250
2 07530 101.4789 108.3395 0012146 089.3977 270.8487 12.53573682525014
AO-10
1 14129U 83058B 08073.57673823 .00000072 00000-0 10000-3 0 4831
2 14129 025.9232 225.7295 6019596 106.5118 324.4173 02.05869743186139
UO-11
1 14781U 84021B 08072.27897199 .00000324 00000-0 50502-4 0 06188
2 14781 098.1664 104.8112 0009549 031.9443 328.2345 14.79625177289527
RS-15
1 23439U 94085A 08072.96059106 -.00000039 00000-0 10000-3 0 01449
2 23439 064.8187 290.6599 0150043 141.0497 220.1348 11.27551702544112
FO-29
1 24278U 96046B 08073.79784756 .00000033 00000-0 66550-4 0 7247
2 24278 098.5859 002.5685 0351318 102.4571 261.6109 13.52935882571493
SO-33
1 25509U 98061B 08072.51947921 .00000072 00000-0 -74036-7 0 01528
2 25509 031.4324 142.9386 0355263 262.0514 093.9645 14.28200922489789
AO-40
1 26609U 00072B 08072.46986890 -.00000349 00000-0 10000-3 0 216
2 26609 007.4844 093.3400 7922017 060.4790 355.1171 01.25581731 33827
VO-52
1 28650U 05017B 08072.34772172 .00000181 00000-0 29571-4 0 08799
2 28650 097.7978 141.5780 0028427 096.7664 263.6850 14.81431366154262
PO-63
1 29712U 07001D 08073.70088411 .00000483 00000-0 70572-4 0 2663
2 29712 097.8858 133.6448 0013690 336.3346 023.7225 14.80054613 63343
AO-16
1 20439U 90005D 08072.91194732 -.00000003 00000-0 14112-4 0 02737
2 20439 098.2220 057.9345 0011802 101.1428 259.1079 14.31786596947143
LO-19
1 20442U 90005G 08072.55601751 .00000004 00000-0 16574-4 0 01985
2 20442 098.1960 066.4121 0012913 101.7130 258.5505 14.32025541947249
AO-27
1 22825U 93061C 08072.52027396 -.00000112 00000-0 -27647-4 0 09209
2 22825 098.3745 036.2238 0008249 180.4041 179.7151 14.29231747753963
IO-26
1 22826U 93061D 08072.94107672 -.00000015 00000-0 10613-4 0 06249
2 22826 098.3658 037.5817 0008760 176.4365 183.6886 14.29480392754115
PO-28
1 22829U 93061G 08072.48503248 .00000109 00000-0 57974-4 0 08965
2 22829 098.3550 038.2653 0009997 150.1885 209.9878 14.30182952754301
GO-32
1 25397U 98043D 08072.22728217 .00000047 00000-0 39048-4 0 05498
2 25397 098.3767 112.1247 0001704 135.1617 224.9704 14.23139973502425
MO-46
1 26548U 00057D 08072.48265399 -.00000011 00000-0 16597-4 0 00479
2 26548 064.5566 069.5015 0018874 337.3042 022.7237 14.83234574403477
NO-44
1 26931U 01043C 08072.73485448 -.00000122 00000-0 -15190-4 0 08298
2 26931 067.0530 173.1277 0005142 276.9499 083.1029 14.29513798336622
SO-50
1 27607U 02058C 08071.74364814 .00000062 00000-0 31608-4 0 05514
2 27607 064.5623 349.5680 0081697 298.8189 060.4731 14.71334645280639
CO-55
1 27844U 03031E 08072.94257333 .00000053 00000-0 45115-4 0 02570
2 27844 098.7189 082.5364 0010618 037.6076 322.5829 14.20565230243774
CO-57
1 27848U 03031J 08072.92777620 .00000015 00000-0 27576-4 0 02106
2 27848 098.7196 081.6378 0010429 040.6776 319.5173 14.20376343243742
AO-51
1 28375U 04025K 08072.64415909 .00000011 00000-0 15882-4 0 00521
2 28375 098.0820 102.6010 0084970 085.2852 275.8037 14.40599455194509
CO-56
1 28941U 06005C 08073.80238799 .00026645 25711-5 21968-3 0 9015
2 28941 098.1030 171.8968 0183706 026.9257 334.1262 15.51877395115226
CP4
1 31122U 07012F 08072.75503570 .00000549 00000-0 13192-3 0 2831
2 31122 098.0506 141.8864 0084404 268.1429 091.0073 14.55096367 48056
CP3
1 31128U 07012M 08073.68210796 -.00000048 00000-0 00000 0 0 2807
2 31128 098.0498 141.1190 0101811 270.0099 088.9442 14.51922038 48070
LIBERT
1 31129U 07012N 08073.66206968 .00000336 00000-0 89029-4 0 8158
2 31129 098.0488 141.1315 0101242 270.0581 088.9001 14.52011177 48056
NOAA-10
1 16969U 86073A 08072.90834617 -.00000064 00000-0 -81447-5 0 00431
2 16969 098.7310 095.0356 0013202 101.4210 258.8439 14.27352602117703
NOAA-11
1 19531U 88089A 08072.85049678 .00000051 00000-0 49000-4 0 00800
2 19531 098.7968 163.5246 0011306 347.0152 013.0709 14.14868419004288
NOAA-12
1 21263U 91032A 08072.97269554 .00000119 00000-0 69056-4 0 05888
2 21263 098.7673 074.9350 0013184 048.1645 312.0698 14.25520949874682
MET-3/5
1 21655U 91056A 08072.93997890 .00000051 00000-0 10000-3 0 04761
2 21655 082.5608 172.3703 0012251 252.1959 107.7827 13.17013214796914
MET-2/21
1 22782U 93055A 08073.39263740 .00000061 00000-0 42123-4 0 876
2 22782 082.5508 187.5539 0022205 194.8134 165.2363 13.83626992733884
OKEAN-4
1 23317U 94066A 08072.88290115 .00000173 00000-0 18352-4 0 05329
2 23317 082.5384 044.9201 0024051 084.4847 275.9137 14.82585986724019
NOAA-14
1 23455U 94089A 08073.36642783 -.00000138 00000-0 -49201-4 0 610
2 23455 098.9533 145.5263 0010087 060.3268 299.8910 14.13736347680815
SICH-1
1 23657U 95046A 08072.90697323 .00000267 00000-0 30743-4 0 03308
2 23657 082.5306 185.8625 0025708 077.3754 283.0333 14.81559071675965
NOAA-15
1 25338U 98030A 08073.49320409 .00000061 00000-0 44437-4 0 3874
2 25338 098.5512 067.8045 0010030 325.7238 034.3291 14.24690232511177
RESURS
1 25394U 98043A 08072.71628537 .00000006 00000-0 20811-4 0 08927
2 25394 098.4024 121.0166 0002166 101.0053 259.1370 14.24154708502712
FENGYUN1
1 25730U 99025A 08073.81409624 .00000141 00000-0 10787-3 0 3619
2 25730 098.7189 052.8425 0022384 079.5416 280.8274 14.07711176455547
OKEAN-0
1 25860U 99039A 08072.89357183 .00000035 00000-0 12533-4 0 03149
2 25860 097.7454 067.7261 0000682 097.0100 263.1188 14.73507099465213
NOAA-16
1 26536U 00055A 08072.94019647 .00000329 00000-0 20340-3 0 08499
2 26536 099.1524 060.0356 0011123 132.6846 227.5271 14.12473323385183
NOAA-17
1 27453U 02032A 08073.42010171 .00000236 00000-0 12135-3 0 8458
2 27453 098.5439 140.7826 0012026 032.6503 327.5427 14.23957127297176
NOAA-18
1 28654U 05018A 08073.40436283 .00000172 00000-0 11953-3 0 3500
2 28654 098.8604 015.5540 0013532 222.8005 137.2127 14.11143785144967
HUBBLE
1 20580U 90037B 08073.75534345 .00000418 00000-0 19564-4 0 924
2 20580 028.4679 225.6413 0003876 092.4138 267.6893 15.00348907780639
UARS
1 21701U 91063B 08073.79845842 .00005850 00000-0 93286-4 0 3135
2 21701 056.9727 217.3672 0085274 000.3391 359.7707 15.50862167907699
PO-34
1 25520U 98064B 08071.44677032 .00000585 00000-0 19034-4 0 09540
2 25520 028.4589 113.1202 0005323 296.4874 063.5173 15.17147624518305
ISS
1 25544U 98067A 08073.77889163 .00028385 00000-0 17915-3 0 1070
2 25544 051.6371 148.2068 0001310 244.5695 215.1945 15.76395734533473
OO-38
1 26063U 00004C 08072.91871125 -.00000014 00000-0 15442-4 0 01608
2 26063 100.2029 130.1083 0037305 120.6272 239.8584 14.35829466425757
UWE-1
1 28892U 05043C 08073.38575568 .00000004 00000-0 10437-4 0 9977
2 28892 098.1059 329.2632 0017601 352.3999 007.6903 14.59601567126621
CO-58
1 28895U 05043F 08072.25954798 .00000064 00000-0 23096-4 0 09703
2 28895 098.1098 328.4814 0018138 355.9399 004.1618 14.59643379126340
NCUBE2
1 28897U 05043H 08073.67472598 .00000129 00000-0 36513-4 0 5015
2 28897 098.1071 329.8009 0017536 352.9817 007.1132 14.59812637118831
FCAL
1 29667U 06055J 08073.49255770 .00075655 14080-4 11019-3 0 8240
2 29667 051.6298 103.2531 0008508 348.4409 011.6407 16.05146837 71133
FALCON
1 30776U 07006E 08073.91628690 .00000629 00000-0 49021-4 0 2670
2 30776 035.4343 011.2597 0001820 281.1665 078.8849 15.02910182 55803
MAST
1 31126U 07012K 08072.17090569 .00000135 00000-0 41536-4 0 02789
2 31126 098.0481 140.4408 0093638 272.5707 086.4788 14.53405254047921
CAPE1
1 31130U 07012P 08072.71317140 .00000190 00000-0 55185-4 0 02608
2 31130 098.0506 140.1930 0101769 273.1192 085.8364 14.51939347047725
/EX
More information about the Keps
mailing list